User: anonymous
Location: Fort Wayne
(41.1310°N, 85.1290°W)
Time: 23:53:25
(UTC-04:00)
Language:

Gbstr 26 Del rocket - Orbit

View from above orbital plane
View from above orbital plane
View from above satellite
View from above satellite

Ground track
Ground track

The orbit data is extracted from the following two-line orbital elements,

1 25876U 99041E   14203.14555303 -.00000113  00000-0  21334-4 0  4221
2 25876 051.7647 178.9102 0540324 178.6228 266.2480 14.02136284765625
Epoch (UTC): 22 July 2014 03:29:35
Eccentricity: 0.0540324
inclination: 51.7647°
perigee height: 494 km
apogee height: 1279 km
right ascension of ascending node: 178.9102°
argument of perigee: 178.6228°
revolutions per day: 14.02136284
mean anomaly at epoch: 266.2480°
orbit number at epoch: 76562

The dashed part of the orbit path shows where the satellite is in the earth's shadow,  

DLR